Waarnemingen

Advertentie
Mijn weer
Zwiesel, Duitsland (10796): temperatuur & dauwpunt: 17.07.2017 08:00:00 - 23.07.2017 08:00:00 (CEST)Zwiesel, Duitsland (10796): temperatuur 5cm & temperatuur -5cm: 17.07.2017 08:00:00 - 23.07.2017 08:00:00 (CEST)Zwiesel, Duitsland (10796): temperatuur -20cm & temperatuur -100cm: 17.07.2017 08:00:00 - 23.07.2017 08:00:00 (CEST)Zwiesel, Duitsland (10796): windsnelheid & windstoten: 17.07.2017 08:00:00 - 23.07.2017 08:00:00 (CEST)Zwiesel, Duitsland (10796): windrichting: 17.07.2017 08:00:00 - 23.07.2017 08:00:00 (CEST)Zwiesel, Duitsland (10796): luchtdruk: 17.07.2017 08:00:00 - 23.07.2017 08:00:00 (CEST)Zwiesel, Duitsland (10796): zicht: 17.07.2017 08:00:00 - 23.07.2017 08:00:00 (CEST)Zwiesel, Duitsland (10796): Zonneschijnduur: 17.07.2017 08:00:00 - 23.07.2017 08:00:00 (CEST)Zwiesel, Duitsland (10796): neerslag: 17.07.2017 08:00:00 - 23.07.2017 08:00:00 (CEST)
Datum & Tijd tt [°C] td [°C] tt 5cm [°C] tt -5cm [°C] tt -20cm [°C] tt -100cm [°C] ff [km/u] ff [kn] fx [km/u] fx [kn] dd ppp [hPa] vv [km] sd [min] rr [mm]
23.07.2017 08:00:00 15,2 14,4 15,1 18,1 20,4 16,5 9 5 15 8 OZO 1018,0 4,1 0 2,1
23.07.2017 07:00:00 15,1 14,2 14,9 18,3 20,7 16,5 6 4 11 6 ZO 1017,7 8 0 7,8
23.07.2017 06:00:00 13,9 12,7 13,7 18,6 21,0 16,4 5 3 11 6 ZZO 1017,1 0,9 0 0,0
23.07.2017 05:00:00 13,0 12,0 11,5 18,9 21,4 16,4 0 0 5 3 N 1015,7 23 0 0,0
23.07.2017 04:00:00 13,2 12,2 11,4 19,5 21,7 16,4 0 0 5 3 N 1015,7 28 0 0,0
23.07.2017 03:00:00 13,8 12,1 12,1 20,1 22,1 16,4 4 2 5 3 O 1015,6 35 0 0,0
23.07.2017 02:00:00 14,1 12,3 12,1 20,9 22,4 16,4 2 1 6 4 ZZW 1015,5 32 0 0,0
23.07.2017 01:00:00 14,7 12,5 12,3 21,7 22,8 16,4 3 2 5 3 N 1015,7 45 0 0,0
23.07.2017 00:00:00 15,8 13,1 13,2 22,7 23,1 16,4 0 0 7 4 N 1015,5 43 0 0,0
22.07.2017 23:00:00 17,4 13,2 14,9 23,8 23,3 16,4 5 3 10 5 NNO 1015,4 48 0 0,0
22.07.2017 22:00:00 17,8 13,4 15,2 25,1 23,4 16,4 0 0 8 4 N 1015,0 56 0 0,0
22.07.2017 21:00:00 20,1 13,6 17,7 26,5 23,4 16,4 4 2 8 4 N 1014,1 61 17 0,0
22.07.2017 20:00:00 25,0 11,5 23,1 27,7 23,2 16,3 4 2 14 7 W 1012,5 70 60 0,0
22.07.2017 19:00:00 25,5 12,2 27,4 28,5 22,9 16,3 9 5 24 13 WZW 1012,5 59 56 0,0
22.07.2017 18:00:00 26,1 14,2 30,2 28,9 22,6 16,3 5 3 25 14 W 1012,2 64 39 0,0
22.07.2017 17:00:00 24,8 12,6 27,4 29,1 22,2 16,3 11 6 28 15 W 1012,5 50 51 0,0
22.07.2017 16:00:00 25,1 12,4 30,1 28,6 21,7 16,3 10 5 23 13 ZZW 1012,9 56 44 0,0
22.07.2017 15:00:00 23,6 14,2 27,2 28,1 21,3 16,3 10 6 24 13 ZZW 1013,7 48 29 0,0
22.07.2017 14:00:00 23,3 14,0 27,8 27,6 20,8 16,3 16 9 26 14 ZZW 1013,8 52 39 0,0
22.07.2017 13:00:00 23,4 14,2 28,0 25,6 20,5 16,3 11 6 22 12 Z 1013,4 52 43 0,0
22.07.2017 12:00:00 22,4 15,0 27,5 23,6 20,3 16,3 10 5 19 11 Z 1013,8 48 14 0,0
22.07.2017 11:00:00 21,8 13,6 24,5 23,1 20,2 16,3 6 3 16 8 Z 1013,6 53 35 0,0
22.07.2017 10:00:00 22,0 14,0 26,2 21,2 20,3 16,3 6 3 14 8 WZW 1013,2 54 56 0,0
22.07.2017 09:00:00 18,8 12,6 21,9 19,5 20,5 16,2 4 2 8 4 W 1014,1 54 58 0,0
22.07.2017 08:00:00 15,1 12,6 16,8 18,6 20,8 16,2 3 1 8 5 ONO 1014,7 38 8 0,0
22.07.2017 07:00:00 13,4 11,6 13,2 18,6 21,1 16,2 3 1 8 4 WZW 1014,7 38 0 0,0
22.07.2017 06:00:00 13,5 11,6 11,7 19,0 21,5 16,2 0 0 9 5 N 1013,9 52 0 0,0
22.07.2017 05:00:00 13,7 11,3 11,9 19,6 21,9 16,2 6 3 11 6 OZO 1013,6 43 0 0,0
22.07.2017 04:00:00 14,9 12,0 12,9 20,3 22,3 16,2 6 4 10 5 ZZW 1012,5 48 0 0,0
22.07.2017 03:00:00 14,6 11,6 12,1 21,1 22,6 16,2 4 2 10 5 N 1012,7 56 0 0,0
22.07.2017 02:00:00 16,2 11,8 13,1 22,0 23,0 16,2 3 2 11 6 NNO 1012,0 54 0 0,0
22.07.2017 01:00:00 18,6 12,1 15,2 22,9 23,3 16,2 4 2 9 5 O 1011,7 62 0 0,0
22.07.2017 00:00:00 19,9 12,6 16,7 23,9 23,6 16,2 4 2 21 12 N 1012,3 57 0 0,0
21.07.2017 23:00:00 21,0 13,3 19,2 25,1 23,9 16,2 11 6 21 11 ZO 1012,3 45 0 0,0
21.07.2017 22:00:00 20,6 13,5 17,7 26,4 24,0 16,2 5 3 9 5 NO 1012,1 47 0 0,0
21.07.2017 21:00:00 23,5 13,8 20,2 27,8 24,0 16,1 3 2 13 7 N 1010,9 48 31 0,0
21.07.2017 20:00:00 24,6 14,4 24,7 29,2 23,8 16,1 9 5 16 9 O 1010,6 50 9 0,0
21.07.2017 19:00:00 25,4 14,1 26,2 30,4 23,4 16,1 9 5 16 9 O 1010,3 49 34 0,0
21.07.2017 18:00:00 27,1 12,0 30,7 31,3 23,0 16,1 7 4 24 13 O 1010,1 52 60 0,0
21.07.2017 17:00:00 26,9 13,0 32,2 31,4 22,4 16,1 10 5 22 12 O 1010,8 48 45 0,0
21.07.2017 16:00:00 27,2 12,1 34,0 31,6 21,7 16,1 5 3 16 9 ZO 1011,0 44 54 0,0
21.07.2017 15:00:00 26,7 13,3 31,9 30,6 21,0 16,1 11 6 17 9 WNW 1011,6 49 60 0,0
21.07.2017 14:00:00 26,3 12,9 32,6 29,0 20,4 16,1 6 3 15 8 ZZW 1012,2 48 60 0,0
21.07.2017 13:00:00 25,1 12,2 31,4 27,1 19,9 16,1 6 3 15 8 ZW 1013,0 41 60 0,0
21.07.2017 12:00:00 23,9 12,8 28,7 25,0 19,6 16,1 7 4 13 7 ZW 1013,7 46 60 0,0
21.07.2017 11:00:00 22,4 12,9 27,5 22,8 19,4 16,0 5 3 11 6 ZW 1014,5 46 60 0,0
21.07.2017 10:00:00 20,3 14,6 24,9 20,9 19,4 16,0 5 3 11 6 ZZW 1015,0 29 60 0,0
21.07.2017 09:00:00 17,8 13,8 20,8 19,1 19,5 16,0 4 2 6 3 ZW 1015,7 25 55 0,0
21.07.2017 08:00:00 14,2 13,5 15,0 18,1 19,8 16,0 2 1 7 4 ZZO 1016,6 2,2 5 0,0
21.07.2017 07:00:00 13,6 13,3 14,3 17,7 20,1 16,0 3 1 5 3 OZO 1016,6 4,2 0 0,0
21.07.2017 06:00:00 12,4 12,2 12,2 17,9 20,4 16,0 6 3 7 4 OZO 1016,6 0,5 0 0,0
21.07.2017 05:00:00 12,8 12,4 11,2 18,5 20,7 16,0 4 2 6 3 O 1016,3 5 0 0,0
21.07.2017 04:00:00 13,4 12,8 11,9 19,3 21,0 16,0 4 2 7 4 NO 1016,5 6 0 0,0
21.07.2017 03:00:00 14,5 13,5 13,8 19,8 21,3 16,0 4 2 6 3 O 1016,4 15 0 0,0
21.07.2017 02:00:00 14,5 13,9 14,3 20,2 21,6 16,0 0 0 6 4 N 1016,2 18 0 0,0
21.07.2017 01:00:00 14,6 13,8 14,4 20,8 22,0 16,0 3 2 7 4 ZO 1016,1 11 0 0,0
21.07.2017 00:00:00 15,3 14,3 14,4 21,6 22,3 16,0 6 3 10 5 OZO 1015,5 19 0 0,0
20.07.2017 23:00:00 16,1 14,9 15,4 22,4 22,6 15,9 4 2 11 6 OZO 1015,4 23 0 0,0
20.07.2017 22:00:00 16,8 15,1 16,2 23,4 22,8 15,9 8 4 13 7 OZO 1014,7 29 0 0,0
20.07.2017 21:00:00 18,1 15,4 17,4 24,4 23,0 15,9 5 3 12 7 Z 1013,8 33 0 0,3
20.07.2017 20:00:00 19,8 15,0 17,7 25,5 23,1 15,9 7 4 22 12 W 1012,8 26 0 0,2
20.07.2017 19:00:00 22,5 13,5 22,0 27,0 23,0 15,9 14 8 38 21 WNW 1011,1 63 0 0,1
20.07.2017 18:00:00 23,3 13,7 22,4 29,0 22,7 15,9 16 8 32 18 WNW 1010,4 53 10 0,0
20.07.2017 17:00:00 26,5 14,3 29,7 29,9 22,3 15,9 15 8 24 13 W 1008,9 43 51 0,0
20.07.2017 16:00:00 26,5 13,9 29,5 29,7 21,8 15,9 10 5 22 12 ZW 1009,0 49 27 0,0
20.07.2017 15:00:00 27,3 14,1 32,0 29,5 21,3 15,9 7 4 21 11 WZW 1009,1 44 58 0,0
20.07.2017 14:00:00 26,3 14,0 30,9 28,2 20,9 15,9 10 5 21 11 W 1009,7 45 30 0,0
20.07.2017 13:00:00 25,0 13,4 29,4 27,6 20,4 15,9 12 6 24 13 ZW 1010,4 51 55 0,0
20.07.2017 12:00:00 25,2 13,7 31,0 25,8 20,1 15,9 12 6 22 12 Z 1010,5 53 58 0,0
20.07.2017 11:00:00 23,8 13,0 28,0 23,8 19,9 15,9 13 7 26 14 Z 1011,3 36 60 0,0
20.07.2017 10:00:00 22,7 14,1 26,8 22,0 19,9 15,9 11 6 21 11 ZZW 1011,9 37 60 0,0
20.07.2017 09:00:00 21,4 14,0 24,8 20,5 20,0 15,9 10 5 16 9 Z 1012,6 24 33 0,0
20.07.2017 08:00:00 21,1 13,5 23,5 19,6 20,3 15,8 3 1 11 6 NO 1012,2 53 49 0,0
20.07.2017 07:00:00 18,8 13,3 18,7 19,1 20,6 15,8 6 4 19 10 ONO 1012,3 44 6 0,0
20.07.2017 06:00:00 18,3 13,5 17,2 19,2 20,9 15,8 13 7 34 18 NNO 1012,5 40 0 0,0
20.07.2017 05:00:00 14,6 12,6 13,3 19,6 21,2 15,8 3 2 11 6 NO 1013,7 32 0 0,0
20.07.2017 04:00:00 14,4 12,5 12,9 20,2 21,6 15,8 2 1 14 8 ZZO 1014,0 29 0 0,0
20.07.2017 03:00:00 16,0 13,2 15,1 20,9 22,0 15,8 11 6 18 10 O 1013,9 39 0 0,0
20.07.2017 02:00:00 15,3 13,2 13,5 21,6 22,3 15,8 3 1 5 3 Z 1013,2 30 0 0,0
20.07.2017 01:00:00 16,2 13,4 13,5 22,6 22,7 15,8 2 1 6 3 ZZW 1013,0 40 0 0,0
20.07.2017 00:00:00 16,7 13,7 14,2 23,6 23,0 15,8 4 2 10 5 NO 1013,0 37 0 0,0
19.07.2017 23:00:00 18,2 13,9 15,4 24,9 23,2 15,8 4 2 8 5 NO 1012,7 43 0 0,0
19.07.2017 22:00:00 19,7 14,2 16,9 26,4 23,3 15,8 5 3 8 4 NNW 1012,1 44 0 0,0
19.07.2017 21:00:00 22,1 14,1 19,2 28,0 23,2 15,8 5 3 8 4 NW 1011,2 50 36 0,0
19.07.2017 20:00:00 27,0 12,9 27,9 29,4 23,0 15,8 4 2 13 7 ZZO 1010,0 62 60 0,0
19.07.2017 19:00:00 28,1 11,6 32,2 30,3 22,6 15,8 7 4 15 8 ZO 1009,9 52 59 0,0
19.07.2017 18:00:00 28,8 12,2 33,4 30,9 22,2 15,8 8 4 23 12 ZZW 1010,1 57 60 0,0
19.07.2017 17:00:00 28,5 12,1 33,2 30,9 21,6 15,8 11 6 19 10 ZZW 1010,5 53 57 0,0
19.07.2017 16:00:00 27,8 15,0 33,2 30,6 21,0 15,8 9 5 31 17 O 1011,3 39 29 0,0
19.07.2017 15:00:00 27,4 15,1 35,0 30,7 20,2 15,8 18 10 29 16 OZO 1011,8 22 59 0,0
19.07.2017 14:00:00 27,2 13,9 32,4 29,4 19,6 15,8 10 5 23 12 WZW 1012,2 45 58 0,0
19.07.2017 13:00:00 27,4 15,2 33,5 27,2 19,0 15,8 9 5 18 10 WZW 1012,6 48 60 0,0
19.07.2017 12:00:00 26,2 13,9 32,3 25,0 18,7 15,8 5 3 14 8 ZW 1013,2 49 60 0,0
19.07.2017 11:00:00 25,4 15,9 29,7 22,7 18,5 15,8 7 4 23 13 WZW 1013,8 45 60 0,0
19.07.2017 10:00:00 22,6 13,6 26,4 20,7 18,4 15,8 5 3 9 5 NO 1014,6 33 47 0,0
19.07.2017 09:00:00 20,6 13,3 22,9 19,2 18,5 15,8 3 2 6 4 NW 1015,5 33 54 0,0
19.07.2017 08:00:00 17,5 13,2 19,4 17,9 18,7 15,8 0 0 5 3 N 1016,0 26 43 0,0
19.07.2017 07:00:00 14,0 12,6 13,4 17,4 19,0 15,8 3 2 9 5 ZW 1016,7 9 3 0,0
19.07.2017 06:00:00 13,6 12,5 12,0 17,7 19,3 15,8 3 2 5 3 OZO 1016,6 12 0 0,0
19.07.2017 05:00:00 13,8 12,5 11,9 18,3 19,6 15,8 4 2 9 5 O 1016,3 12 0 0,0
19.07.2017 04:00:00 15,3 13,4 13,2 18,9 19,9 15,8 8 4 13 7 O 1016,0 19 0 0,0
19.07.2017 03:00:00 15,7 13,5 13,6 19,6 20,1 15,8 5 3 8 5 O 1016,2 19 0 0,0
19.07.2017 02:00:00 18,5 14,2 15,8 20,3 20,4 15,8 6 4 17 9 ONO 1015,8 24 0 0,0
19.07.2017 01:00:00 19,1 14,3 17,2 21,0 20,6 15,8 11 6 18 10 NNO 1015,8 25 0 0,0
19.07.2017 00:00:00 19,2 14,4 17,1 21,9 20,8 15,8 6 3 14 8 NO 1016,2 25 0 0,0
18.07.2017 23:00:00 20,4 14,6 18,8 22,8 20,9 15,8 8 5 17 9 N 1016,1 28 0 0,0
18.07.2017 22:00:00 21,9 14,5 19,0 23,9 21,0 15,8 6 3 16 9 NO 1015,6 35 0 0,0
18.07.2017 21:00:00 22,6 14,4 21,5 25,0 20,9 15,8 5 3 23 12 ONO 1015,3 38 0 0,0
18.07.2017 20:00:00 24,6 12,2 23,7 26,1 20,7 15,8 6 3 12 7 NO 1014,6 55 5 0,0
18.07.2017 19:00:00 25,5 12,8 26,4 27,1 20,3 15,8 7 4 16 9 O 1014,5 54 44 0,0
18.07.2017 18:00:00 25,7 12,8 27,2 27,4 19,9 15,8 8 4 18 10 NNO 1014,6 53 40 0,0
18.07.2017 17:00:00 26,5 13,0 31,3 27,1 19,4 15,8 9 5 18 10 NNO 1014,9 56 47 0,0
18.07.2017 16:00:00 24,9 13,5 26,2 27,0 18,9 15,8 8 5 18 10 N 1015,9 58 36 0,0
18.07.2017 15:00:00 25,7 15,2 30,2 26,1 18,3 15,8 7 4 13 7 NNW 1016,2 50 35 0,0
18.07.2017 14:00:00 24,3 14,1 26,4 25,9 17,7 15,8 8 4 14 8 N 1017,0 45 37 0,0
18.07.2017 13:00:00 24,9 12,3 31,7 23,9 17,3 15,8 7 4 16 9 NO 1017,1 41 42 0,0
18.07.2017 12:00:00 23,5 12,5 25,2 23,1 16,8 15,8 7 4 13 7 N 1017,8 56 47 0,0
18.07.2017 11:00:00 24,2 12,6 27,6 21,1 16,5 15,8 5 3 10 5 ZW 1017,8 59 60 0,0
18.07.2017 10:00:00 22,5 13,2 25,2 18,9 16,4 15,8 4 2 10 5 W 1018,5 42 60 0,0
18.07.2017 09:00:00 19,9 13,9 22,4 16,8 16,5 15,8 2 1 5 3 ZW 1019,4 28 60 0,0
18.07.2017 08:00:00 15,5 12,2 16,1 15,1 16,7 15,8 0 0 5 3 N 1020,8 21 37 0,0
18.07.2017 07:00:00 12,1 10,5 11,9 14,7 17,0 15,8 0 0 7 4 N 1021,9 16 19 0,0
18.07.2017 06:00:00 11,2 10,7 9,6 14,9 17,2 15,8 3 2 7 4 OZO 1022,0 10 0 0,0
18.07.2017 05:00:00 11,8 11,1 9,4 15,4 17,5 15,8 3 1 6 3 ZZW 1021,9 21 0 0,0
18.07.2017 04:00:00 11,5 10,8 9,4 15,9 17,8 15,8 2 1 6 3 O 1022,2 10 0 0,0
18.07.2017 03:00:00 12,3 11,4 10,1 16,5 18,0 15,9 2 1 8 5 O 1022,3 18 0 0,0
18.07.2017 02:00:00 12,9 11,9 10,4 17,1 18,3 15,9 4 2 8 4 ONO 1022,1 23 0 0,0
18.07.2017 01:00:00 13,6 12,1 11,1 17,8 18,5 15,9 3 2 6 3 Z 1022,1 26 0 0,0
18.07.2017 00:00:00 14,4 12,4 11,4 18,6 18,7 15,9 0 0 6 4 N 1021,9 33 0 0,0
17.07.2017 23:00:00 15,3 12,6 12,6 19,6 18,8 15,9 4 2 6 3 O 1021,6 37 0 0,0
17.07.2017 22:00:00 16,9 13,4 13,9 20,6 18,9 15,9 4 2 6 3 N 1021,1 42 0 0,0
17.07.2017 21:00:00 18,9 14,1 16,5 21,6 18,8 15,9 5 3 9 5 NW 1020,2 41 0 0,0
17.07.2017 20:00:00 21,5 12,6 20,6 22,5 18,6 15,9 6 3 12 6 WNW 1019,3 53 6 0,0
17.07.2017 19:00:00 22,7 12,1 23,1 23,1 18,4 15,9 8 4 14 8 W 1018,9 70 14 0,0
17.07.2017 18:00:00 24,4 11,3 27,7 23,3 18,1 15,9 4 2 10 5 WNW 1018,7 67 52 0,0
17.07.2017 17:00:00 23,1 11,6 25,9 22,9 17,8 15,9 3 2 10 5 N 1019,2 53 19 0,0
17.07.2017 16:00:00 22,0 12,2 23,7 22,7 17,4 15,9 4 2 11 6 NNO 1019,8 52 14 0,0
17.07.2017 15:00:00 22,2 11,1 24,5 22,4 17,1 15,9 5 3 17 9 ZZW 1020,0 67 19 0,0
17.07.2017 14:00:00 21,5 11,2 24,0 22,0 16,7 15,9 11 6 19 10 WZW 1020,4 60 23 0,0
17.07.2017 13:00:00 21,3 11,5 26,6 20,6 16,4 15,9 9 5 16 9 ZW 1020,8 52 35 0,0
17.07.2017 12:00:00 19,8 10,3 22,7 19,3 16,3 15,9 4 2 9 5 WZW 1021,5 58 0 0,0
17.07.2017 11:00:00 18,8 10,2 21,6 18,1 16,2 15,9 4 2 6 4 W 1021,9 57 0 0,0
17.07.2017 10:00:00 17,5 11,3 19,7 17,1 16,1 15,9 0 0 5 3 N 1022,2 64 0 0,0
17.07.2017 09:00:00 16,0 10,9 17,5 16,2 16,2 16,0 2 1 5 3 ZZO 1022,7 51 0 0,0
17.07.2017 08:00:00 14,2 10,7 15,0 15,7 16,3 16,0 0 0 4 2 N 1023,1 48 0 0,0

tt = temperatuur
td = dauwpunt
tt 5cm = temperatuur 5cm
tt -5cm = temperatuur -5cm
tt -20cm = temperatuur -20cm
tt -100cm = temperatuur -100cm
ff = windsnelheid
fx = windstoten
dd = windrichting
ppp = luchtdruk
vv = zicht
sd = Zonneschijnduur
rr = neerslag

Weerstations in de omgeving